"Pseudo-MPEC" for P113o4U

Created 2020 Aug 7 4:07:10 UT using Find_Orb

Click here for an explanation of pseudo-MPECs

 
 Astrometry: 
     P113o4U  C2020 07 30yFZ`NCV/?nuQYCvX[nv,oUNJc11`4Y`49]W%VK-^D)=%RmfG:MWOF51
     P113o4U  C2020 07 30^=qXQ02nGiM#oAstrometryN1-Ln$+FLqH(ffUCom;2M=O`eP)9TF51
     P113o4U  C2020 07 30Rg?:m3rxZDp\M\H\Yq*u)HFQb2\F%6RF/l9B?7V=a8jC:'W1eRngF51
     P113o4U  C2020 07 31.osK[Uq`E#,TJEvi6-,xyQunXR%w^NdmC]$8i]lJ7Ih__ul7NC3BF51
     P113o4U  C2020 07 31UeR$Predacted;qMi+lXIP$MAuclickP/Zi^L'go:/$Y1V];s.BMF51
     P113o4U  C2020 07 31wM?/PI4#kc-TCwmp$Z?rCD+UCJMQmT)tNlKwZ(BC6QggD7kXV=!TF51
     P113o4U pC2020 08 01H0Uk[\w(7VeL[-9PTj=uh.fFe)G?+2NwGeN)VT_uZA7g9*Gt5BD.L01
     P113o4U KC2020 08 01bckd\vveMCP!L,/e'j`rWy#OFQ?hHcP0uNbrJ'yGWhere!M=d9xTL01
     P113o4U KC2020 08 01yKfS(oy34B[QLlWHtt@y!sF3tN*9g)m@T3s6)MI=I+ouQCK=JV7KL01
     P113o4U pC2020 08 01ieys$@VL:d9hB;$:/c9:i7ejTjEoieHChMo(7/pl+epE]Y.forwsL01
     P113o4U  C2020 08 01Rh^Bv(vBwe-E[Pg.JctFH`HCuVtnbb,*9i[fEBf[LSC#wixC88_`F51
     P113o4U  C2020 08 0154pd\YC=?2xRwv2#LV))-M'Q?sjY/Y)M;bS8Zs$2MWc$Ov'U,0_9F52
     P113o4U  C2020 08 017@jV:55#n?*/[]oV'^7kbAAivMS5fkV1!JFk':01#En%;%`B=wg%F52
     P113o4U  C2020 08 01r.Ho[!*F:g3mE'#0*Yd=8$:UU'ZNj\w%]['^vn`n[-nbd$Gf7e*OF51
     P113o4U  C2020 08 01iD*x%Lo#u8_explanationVP5%j):wwWaVXMmC1CfU'd5Fk^Fn3^F51
     P113o4U  C2020 08 01-jhBIXL=U#tYRDMOUpo1w4w%^DMr\[K#?))\9-1Ufcymm/=btovtF52

Station data:
(F51) Pan-STARRS 1, Haleakala  (N20.707235 W156.255910)  US/Hawaii.
   Observers N. Primak, A. Schultz, S. Watters, J. Thiel, T. Goggia. Measurer
   PS1 Science Consortium. 1.8-m Ritchey-Chrétien + CCD.
(F52) Pan-STARRS 2, Haleakala  (N20.707384 W156.255910)  US/Hawaii. 1.8-m
   Ritchey-Chrétien + CCD.
(L01) Višnjan Observatory, Tičan  (N45.290900 E13.749300)  Croatia.
   Observers K. Korlević, E. Pettarin. Measurer E. Pettarin. 1.0-m f/2.9
   reflector + CCD.

Orbital elements:  P113o4U
   Perihelion 2020 Oct 5.484600 +/- 4.42 TT = 11:37:49 (JD 2459127.984600)
Epoch 2020 Aug  1.0 TT = JDT 2459062.5   Earth MOID: 0.0984   Ve: 0.0461
M 321.91793066 +/- 11               (J2000 ecliptic)          AutoNEOCP
n   0.58154236 +/- 0.159            Peri.  196.60391 +/- 8
a   1.42150527 +/- 0.259            Node   251.14696 +/- 2.7
e   0.4642441 +/- 0.0761            Incl.    6.74169 +/- 0.19
P   1.69/619.03d           H 19.6   G  0.15   U 11.5  
q 0.76157975 +/- 0.0404    Q 2.08143079 +/- 0.647
From 16 observations 2020 July 30-Aug. 1; mean residual 0".19
Residuals in arcseconds: 
200730 F51  .13+  .12-    200801 L01  .09+  .15-    200801 F52  .17+  .04-    
200730 F51  .14-  .05+    200801 L01  .29-  .01-    200801 F51  .24+  .01+    
200730 F51  .08-  .02+    200801 L01  .67-  .32+    200801 F51  .12+  .14-    
200731 F51  .27+  .00     200801 L01  .19+  .02-    200801 F52  .24-  .07-    
200731 F51  .12+  .00     200801 F51  .25+  .01+    
200731 F51  .27+  .02+    200801 F52  .16-  .09+    

Ephemerides (geocentric):
Date (UTC) HH   RA              Dec         delta   r     elong  mag " sig PA
---- -- -- --  -------------   -----------  ------ ------ -----  --- ---- ---
2020 08 07 04  04 16 05.314   +28 55 36.57  .87450 1.0596  67.8 21.7 4.70  92
2020 08 07 05  04 16 20.721   +28 56 01.82  .87434 1.0593  67.8 21.7 4.80  92
2020 08 07 06  04 16 36.135   +28 56 26.97  .87417 1.0590  67.8 21.7 4.90  91
2020 08 07 07  04 16 51.556   +28 56 52.01  .87400 1.0586  67.7 21.7 5.00  91
2020 08 07 08  04 17 06.984   +28 57 16.96  .87384 1.0583  67.7 21.7 5.11  91
2020 08 07 09  04 17 22.419   +28 57 41.80  .87367 1.0580  67.7 21.7 5.22  91
2020 08 07 10  04 17 37.861   +28 58 06.54  .87351 1.0577  67.7 21.7 5.32  91
2020 08 07 11  04 17 53.310   +28 58 31.18  .87334 1.0574  67.7 21.7 5.43  91
2020 08 07 12  04 18 08.766   +28 58 55.71  .87318 1.0571  67.7 21.7 5.54  91
2020 08 07 13  04 18 24.229   +28 59 20.15  .87301 1.0568  67.6 21.7 5.66  91
2020 08 07 14  04 18 39.699   +28 59 44.48  .87285 1.0565  67.6 21.6 5.77  91
2020 08 07 15  04 18 55.175   +29 00 08.70  .87268 1.0561  67.6 21.6 5.89  91
2020 08 07 16  04 19 10.659   +29 00 32.83  .87252 1.0558  67.6 21.6 6.00  91
2020 08 07 17  04 19 26.150   +29 00 56.85  .87236 1.0555  67.6 21.6 6.12  91
2020 08 07 18  04 19 41.647   +29 01 20.77  .87220 1.0552  67.5 21.6 6.24  91
2020 08 07 19  04 19 57.151   +29 01 44.58  .87204 1.0549  67.5 21.6 6.36  91
2020 08 07 20  04 20 12.662   +29 02 08.29  .87187 1.0546  67.5 21.6 6.49  91
2020 08 07 21  04 20 28.180   +29 02 31.90  .87171 1.0543  67.5 21.6 6.61  91
2020 08 07 22  04 20 43.704   +29 02 55.40  .87155 1.0539  67.5 21.6 6.74  91
2020 08 07 23  04 20 59.236   +29 03 18.80  .87139 1.0536  67.5 21.6 6.86  91
2020 08 08 00  04 21 14.774   +29 03 42.09  .87124 1.0533  67.4 21.6 6.99  91
2020 08 08 01  04 21 30.319   +29 04 05.28  .87108 1.0530  67.4 21.6 7.12  91
2020 08 08 02  04 21 45.871   +29 04 28.37  .87092 1.0527  67.4 21.6 7.26  91
2020 08 08 03  04 22 01.429   +29 04 51.35  .87076 1.0524  67.4 21.6 7.39  91
2020 08 08 04  04 22 16.994   +29 05 14.22  .87060 1.0521  67.4 21.6 7.52  91
2020 08 08 05  04 22 32.566   +29 05 36.99  .87045 1.0518  67.4 21.6 7.66  91
2020 08 08 06  04 22 48.145   +29 05 59.65  .87029 1.0514  67.3 21.6 7.80  91
2020 08 08 07  04 23 03.730   +29 06 22.21  .87013 1.0511  67.3 21.6 7.94  91
2020 08 08 08  04 23 19.322   +29 06 44.66  .86998 1.0508  67.3 21.6 8.08  90
2020 08 08 09  04 23 34.920   +29 07 07.01  .86982 1.0505  67.3 21.6 8.23  90
2020 08 08 10  04 23 50.526   +29 07 29.25  .86967 1.0502  67.3 21.6 8.37  90
2020 08 08 11  04 24 06.137   +29 07 51.39  .86951 1.0499  67.3 21.6 8.52  90
2020 08 08 12  04 24 21.756   +29 08 13.42  .86936 1.0496  67.2 21.6 8.67  90
2020 08 08 13  04 24 37.381   +29 08 35.34  .86921 1.0493  67.2 21.6 8.82  90
2020 08 08 14  04 24 53.012   +29 08 57.15  .86906 1.0490  67.2 21.6 8.97  90
2020 08 08 15  04 25 08.650   +29 09 18.86  .86890 1.0486  67.2 21.6 9.12  90
2020 08 08 16  04 25 24.295   +29 09 40.46  .86875 1.0483  67.2 21.6 9.28  90
2020 08 08 17  04 25 39.946   +29 10 01.96  .86860 1.0480  67.1 21.6 9.44  90
2020 08 08 18  04 25 55.604   +29 10 23.35  .86845 1.0477  67.1 21.6 9.59  90
2020 08 08 19  04 26 11.268   +29 10 44.63  .86830 1.0474  67.1 21.6 9.75  90
2020 08 08 20  04 26 26.939   +29 11 05.80  .86815 1.0471  67.1 21.6 9.92  90
2020 08 08 21  04 26 42.616   +29 11 26.87  .86800 1.0468  67.1 21.6 10.1  90
2020 08 08 22  04 26 58.300   +29 11 47.82  .86785 1.0465  67.1 21.6 10.2  90
2020 08 08 23  04 27 13.990   +29 12 08.67  .86770 1.0461  67.0 21.6 10.4  90
2020 08 09 00  04 27 29.686   +29 12 29.41  .86755 1.0458  67.0 21.6 10.6  90
2020 08 09 01  04 27 45.389   +29 12 50.05  .86741 1.0455  67.0 21.6 10.8  90
2020 08 09 02  04 28 01.098   +29 13 10.57  .86726 1.0452  67.0 21.6 10.9  90
2020 08 09 03  04 28 16.814   +29 13 30.99  .86711 1.0449  67.0 21.6 11.1  90